Location: New Plymouth
(39.0670°S, 174.0830°E)
Time: 05:34:31
(UTC+13:00)

NOAA 19 - Pass Details

Date: 22 August 2019
Orbit: 840 x 862 km, 99.2° (Epoch: 15 October)

Event Time Altitude Azimuth Distance (km) Brightness Sun altitude
Rises 03:06:49 0° 76° (ENE) 3,404 8.8 -45.5°
Reaches altitude 10° 03:11:40 10° 114° (ESE) 2,483 8.2 -44.7°
Maximum altitude 03:12:31 10° 123° (ESE) 2,460 8.2 -44.5°
Drops below altitude 10° 03:13:23 10° 133° (SE) 2,488 8.2 -44.4°
Sets 03:18:15 0° 171° (S) 3,440 8.7 -43.5°
